Regional Weather Roundup
Issued by NWS

Home | Current Version | Previous Version | Text Only | Print | Product List | Glossary Off
Versions: 1 2 3 4 5 6 7 8 9 10 11 12 13 14 15 16 17 18 19 20 21 22 23 24 25 26 27 28 29 30 31 32 33 34 35 36 37 38 39 40 41 42 43 44 45 46 47 48 49 50

000
ASUS43 KDTX 291710
RWRMI
MICHIGAN HOURLY REGIONAL WEATHER ROUNDUP
NATIONAL WEATHER SERVICE DETROIT/PONTIAC MI
100 PM EDT SAT AUG 29 2015

NOTE: "FAIR" INDICATES FEW OR NO CLOUDS BELOW 12,000 FEET WITH NO
SIGNIFICANT WEATHER AND/OR OBSTRUCTION TO VISIBILITY.

MIZ047>049-052>055-059>063-066>070-074>076-081>083-291800-
SOUTHEAST LOWER MICHIGAN

CITY           SKY/WX    TMP DP  RH WIND       PRES   REMARKS
ADRIAN         PTSUNNY   78  62  57 S6        30.11F
ALMA           CLOUDY    65  64  95 SE3       30.13S FOG
ANN ARBOR      CLOUDY    74  62  66 MISG      30.11F
BAD AXE        LGT RAIN  67  62  82 NE3       30.14S
DETROIT CITY   PTSUNNY   75  64  68 E6        30.11F
DETROIT        CLOUDY    77  60  55 SE7       30.11F
FLINT          LGT RAIN  72  63  73 S5        30.12F
GROSSE ILE     PTSUNNY   75  63  64 SE6       30.10F
HILLSDALE      CLOUDY    71  67  87 CALM      30.12F
HOWELL         LGT RAIN  68  64  86 S3        30.12F

CITY           SKY/WX    TMP DP  RH WIND       PRES   REMARKS
JACKSON        LGT RAIN  68  64  87 CALM      30.11F FOG
LAMBERTVILLE   PTSUNNY   79  62  54 S3        30.11F
LANSING        CLOUDY    66  62  87 S3        30.12F
LAPEER         NOT AVBL
MASON          LGT RAIN  67  61  83 CALM      30.13R
MONROE         PTSUNNY   77  60  56 SE7       30.10F
MT. CLEMENS    CLOUDY    71  65  81 E8        30.11F HAZE
PONTIAC        LGT RAIN  70  64  81 SE6       30.12F
PORT HOPE        N/A     66  60  81 E7        30.13F
PORT HURON     CLOUDY    72  64  78 SE6       30.13F
TRI CITIES     CLOUDY    67  62  84 E5        30.13F
YPSILANTI      CLOUDY    79  62  56 S6        30.11F
$$
MIZ043>046-050>051-056>058-064>065-071>073-077>080-291800-
SOUTHWEST LOWER MICHIGAN

CITY           SKY/WX    TMP DP  RH WIND       PRES   REMARKS
BATTLE CREEK   LGT RAIN  66  63  90 E5        30.11F
BENTON HARBOR  RAIN      65  63  93 NE3       30.07S FOG
BIG RAPIDS     DRIZZLE   64  62  94 SE3       30.11F
COLDWATER      RAIN      69  64  84 SE3       30.10F
HOLLAND        LGT RAIN  67  63  87 SE7       30.08F
GRAND RAPIDS   CLOUDY    67  63  87 E5        30.10S
KALAMAZOO      CLOUDY    66  62  87 S5        30.10F
MARSHALL       LGT RAIN  65  64  95 CALM      30.10F
MUSKEGON       CLOUDY    66  62  87 E5        30.08S
$$
MIZ016>042-291800-
NORTHERN LOWER MICHIGAN

CITY           SKY/WX    TMP DP  RH WIND       PRES   REMARKS
ALPENA         CLOUDY    69  62  78 VRB6      30.12F
BEAVER ISLAND  CLOUDY    66  61  84 W7        30.09S
BELLAIRE       CLOUDY    65  60  81 CALM      30.11F
CADILLAC       CLOUDY    66  60  80 S7        30.11S
CHARLEVOIX     CLOUDY    66  61  86 SW6       30.13S
FRANKFORT      CLOUDY    70  63  78 S8        30.09F
GAYLORD        PTSUNNY   66  61  84 SE5       30.12F
GRAYLING       CLOUDY    65  59  81 CALM      30.13F
HARBOR SPRINGS CLOUDY    66  61  83 SW3       30.10F
HOUGHTON LAKE  CLOUDY    66  59  78 VRB7      30.14S
MANISTEE       PTSUNNY   68  57  68 S9        30.10S
OSCODA         CLOUDY    66  58  75 SE5       30.13S
PELLSTON       CLOUDY    67  61  81 S3        30.10F
TRAVERSE CITY  CLOUDY    67  61  81 CALM      30.10S
$$
MIZ007>008-015-291800-
EASTERN UPPER MICHIGAN

CITY           SKY/WX    TMP DP  RH WIND       PRES   REMARKS
KINROSS        CLOUDY    66  61  82 W12       30.08F
MACKINAC ISLAN CLOUDY    66  60  80 W6        30.09S
NEWBERRY       CLOUDY    69  59  69 SW12      30.07S
S. S. MARIE    CLOUDY    67  61  81 CALM      30.06F
$$
MIZ004>006-011>014-085-291800-
CENTRAL UPPER MICHIGAN

CITY           SKY/WX    TMP DP  RH WIND       PRES   REMARKS
MANISTIQUE     SUNNY     69  61  75 SW6       30.07F
ESCANABA       CLOUDY    66  61  82 S8        30.06F
MENOMINEE      CLOUDY    64  57  77 S5        30.08S
SAWYER-GWINN   MOSUNNY   72  57  60 W7        30.06S
$$
MIZ001>003-009>011-084-291800-
WESTERN UPPER MICHIGAN

CITY           SKY/WX    TMP DP  RH WIND       PRES   REMARKS
IRON MOUNTAIN  PTSUNNY   71  58  63 S7        30.06S
HOUGHTON       CLOUDY    69  57  65 W15       30.02F
COPPER HARBOR    N/A     73  58  59 NW8       30.00S
IRONWOOD       MOSUNNY   70  61  73 SW6       30.02F
$$

ABBREVIATIONS USED IN REMARKS
   TC - TEMPERATURE IN CELSIUS
  WCI - WIND CHILL INDEX
   HX - HEAT INDEX
  VSB - VISIBILITY



USA.gov is the U.S. government's official web portal to all federal, state and local government web resources and services.